Regional Weather Roundup
Issued by NWS

Home | Current Version | Previous Version | Text Only | Print | Product List | Glossary Off
Versions: 1 2 3 4 5 6 7 8 9 10 11 12 13 14 15 16 17 18 19 20 21 22 23 24 25 26 27 28 29 30 31 32 33 34 35 36 37 38 39 40 41 42 43 44 45 46 47 48 49 50

000
ASUS43 KFSD 280902
RWRSD

WEATHER ROUNDUP FOR SOUTH DAKOTA
NATIONAL WEATHER SERVICE SIOUX FALLS SD
400 AM CDT THU APR 28 2016

NOTE: "FAIR" INDICATES FEW OR NO CLOUDS BELOW 12,000 FEET WITH NO
SIGNIFICANT WEATHER AND/OR OBSTRUCTIONS TO VISIBILITY.


SDZ001>005-009-010-012>017-281000-
NORTHWEST AND NORTH CENTRAL SOUTH DAKOTA

CITY           SKY/WX    TMP DP  RH WIND       PRES   REMARKS
BUFFALO          N/A     34  32  92 N12       29.92S WCI  25
FAITH            N/A     32  30  92 N12       29.95R WCI  23
MOBRIDGE       LGT RAIN  37  34  89 E12       29.94R
$$

SDZ012>016-024>037-041>051-057-063-072>074-281000-
SOUTHWEST AND SOUTH CENTRAL SOUTH DAKOTA

CITY           SKY/WX    TMP DP  RH WIND       PRES   REMARKS
RAPID CTY ARPT CLOUDY    32  31  96 N16       29.95R WCI  21
PIERRE         CLOUDY    35  34  96 NE15      29.91R WCI  25
CUSTER         CLOUDY    27  21  78 VRB7      29.87F WCI  19
ELLSWORTH AFB  CLOUDY    32  32 100 N13       29.94  FOG     WCI  23
PHILIP         CLOUDY    34  33  96 N10       29.94R WCI  26
PINE RIDGE     CLOUDY    31  29  92 NW9       29.93R WCI  23
WINNER         LGT RAIN  39  36  89 NW14      29.87R FOG
$$

SDZ004>011-016>023-039-040-281000-
NORTHEAST SOUTH DAKOTA

CITY           SKY/WX    TMP DP  RH WIND       PRES   REMARKS
ABERDEEN       CLOUDY    38  34  85 NE15      29.93F
WATERTOWN      CLOUDY    37  30  75 NE17      29.87R
BROOKINGS      LGT RAIN  39  37  92 NE13      29.82R
SISSETON         N/A     38  31  76 NE9       29.94R
$$

SDZ017-020-022-023-036>040-048>070-281000-
SOUTHEAST SOUTH DAKOTA

CITY           SKY/WX    TMP DP  RH WIND       PRES   REMARKS
SIOUX FALLS    LGT RAIN  41  38  89 NE15      29.79R
HURON          CLOUDY    39  35  86 NE12      29.87S
MITCHELL       CLOUDY    42  41  96 NE14      29.84R FOG
YANKTON        CLOUDY    43  39  87 N8        29.78R
$$

ABBREVIATIONS USED IN REMARKS
   TC - TEMPERATURE IN CELSIUS
  WCI - WIND CHILL INDEX
   HX - HEAT INDEX
  VSB - VISIBILITY





USA.gov is the U.S. government's official web portal to all federal, state and local government web resources and services.